TimeEST,TemperatureF,Dew PointF,Humidity,Sea Level PressureIn,VisibilityMPH,Wind Direction,Wind SpeedMPH,Gust SpeedMPH,PrecipitationIn,Events,Conditions,WindDirDegrees,DateUTC
12:54 AM,32.0,24.1,73,30.08,10.0,NNW,23.0,32.2,0.00,,Overcast,340,2011-12-08 05:54:00
1:54 AM,30.9,23.0,72,30.11,10.0,NNW,17.3,26.5,N/A,,Overcast,330,2011-12-08 06:54:00
2:12 AM,30.2,21.2,69,30.11,10.0,North,16.1,28.8,N/A,,Scattered Clouds,350,2011-12-08 07:12:00
2:54 AM,30.0,21.0,69,30.17,10.0,NNW,24.2,28.8,N/A,,Clear,330,2011-12-08 07:54:00
3:54 AM,30.0,19.9,66,30.19,10.0,North,11.5,19.6,N/A,,Clear,350,2011-12-08 08:54:00
4:54 AM,28.9,21.0,72,30.19,10.0,North,15.0,26.5,N/A,,Clear,350,2011-12-08 09:54:00
5:54 AM,28.9,21.0,72,30.21,10.0,NNW,15.0,24.2,N/A,,Clear,340,2011-12-08 10:54:00
6:54 AM,28.9,19.9,69,30.25,10.0,North,12.7,-,N/A,,Clear,350,2011-12-08 11:54:00
7:54 AM,28.9,19.0,67,30.29,10.0,North,12.7,21.9,N/A,,Clear,350,2011-12-08 12:54:00
8:54 AM,30.9,19.9,64,30.29,10.0,North,12.7,-,N/A,,Clear,350,2011-12-08 13:54:00
9:54 AM,35.1,15.1,44,30.29,10.0,North,13.8,19.6,N/A,,Clear,350,2011-12-08 14:54:00
10:54 AM,37.0,7.0,29,30.30,10.0,North,9.2,-,N/A,,Clear,350,2011-12-08 15:54:00
11:54 AM,41.0,12.9,32,30.27,10.0,North,9.2,-,N/A,,Clear,10,2011-12-08 16:54:00
12:54 PM,46.0,14.0,28,30.25,10.0,Calm,Calm,-,N/A,,Clear,0,2011-12-08 17:54:00
1:54 PM,46.9,17.1,30,30.23,10.0,SSE,5.8,-,N/A,,Clear,160,2011-12-08 18:54:00
2:54 PM,48.9,18.0,29,30.22,10.0,Variable,4.6,-,N/A,,Clear,0,2011-12-08 19:54:00
3:54 PM,48.9,19.0,31,30.23,10.0,ESE,4.6,-,N/A,,Clear,120,2011-12-08 20:54:00
4:54 PM,48.0,21.0,34,30.25,10.0,Calm,Calm,-,N/A,,Clear,0,2011-12-08 21:54:00
5:54 PM,45.0,19.9,37,30.25,10.0,ESE,3.5,-,N/A,,Clear,120,2011-12-08 22:54:00
6:54 PM,39.2,23.0,52,30.26,10.0,Calm,Calm,-,N/A,,Clear,0,2011-12-08 23:54:00
7:54 PM,37.0,26.1,65,30.29,10.0,Calm,Calm,-,N/A,,Clear,0,2011-12-09 00:54:00
8:54 PM,35.1,27.0,72,30.30,10.0,Calm,Calm,-,N/A,,Clear,0,2011-12-09 01:54:00
9:54 PM,35.1,26.1,70,30.29,10.0,SSE,3.5,-,N/A,,Clear,150,2011-12-09 02:54:00
10:54 PM,33.8,26.6,75,30.27,10.0,South,3.5,-,N/A,,Clear,170,2011-12-09 03:54:00
11:54 PM,33.1,28.0,82,30.28,10.0,Calm,Calm,-,N/A,,Clear,0,2011-12-09 04:54:00